Simultaneous Nadir Overpasses (SNOs) Predictions

Prediction of SNOs between GOES-16 and LANDSAT-8 Satellite Orbit:

Table of predicted SNOs for the next 14.0 days since TLE Epoch: 5/14/2022
Index Date Time (GOES-16) GOES-16 Lat,Lon LANDSAT-8 Lat,Lon Distance(km) Time Diff (sec)
1 05/15/2022 15:12:31 0.06, -75.22 0.08, -75.40 20.12 80
2 05/17/2022 15:03:00 0.05, -75.23 -0.53, -72.44 316.98 80
3 05/18/2022 03:24:24 -0.05, -75.22 -0.53, -77.64 275.12 80
4 05/20/2022 03:09:33 -0.04, -75.23 0.09, -74.68 62.22 80
5 05/22/2022 02:57:23 -0.03, -75.24 0.73, -71.73 400.32 80
6 05/22/2022 15:18:38 0.03, -75.27 0.34, -76.89 183.48 80
7 05/24/2022 15:09:06 0.03, -75.30 -0.24, -73.92 156.17 80
8 05/25/2022 03:30:30 -0.03, -75.29 -0.87, -79.11 434.88 80
9 05/26/2022 14:56:55 0.03, -75.33 -0.90, -70.96 496.67 80
10 05/27/2022 03:18:19 -0.02, -75.33 -0.21, -76.15 94.18 80
